This is the latest recevied weather packets stored in our database for station/object NC4M. If no packets are shown the sender has not sent any weather packets the latest 10 day(s).
| Time | Temp. | Humidity | Pressure | Rain* | Wind** | Luminosity | Snow |
|---|---|---|---|---|---|---|---|
| 1787496943 | 23.89° C | 64% | 1020.7 hPa | 0 mm | - | 121 W/m² | - |
| 1787496638 | 23.33° C | 63% | 1020.6 hPa | 0 mm | - | 111 W/m² | - |
| 1787496333 | 23.33° C | 59% | 1020.5 hPa | 0 mm | - | 110 W/m² | - |
| 1787496033 | 22.78° C | 67% | 1020.5 hPa | 0 mm | - | 111 W/m² | - |
| 1787495728 | 22.78° C | 63% | 1020.8 hPa | 0 mm | - | 98 W/m² | - |
| 1787495424 | 22.78° C | 64% | 1020.6 hPa | 0 mm | - | 109 W/m² | - |
| 1787495120 | 22.78° C | 65% | 1020.5 hPa | 0 mm | - | 103 W/m² | - |
| 1787494815 | 22.22° C | 69% | 1020.6 hPa | 0 mm | - | 97 W/m² | - |
| 1787494510 | 22.22° C | 71% | 1020.5 hPa | 0 mm | - | 76 W/m² | - |
| 1787494205 | 21.67° C | 75% | 1020.7 hPa | 0 mm | - | 61 W/m² | - |
| 1787493901 | 21.67° C | 71% | 1020.6 hPa | 0 mm | - | 54 W/m² | - |
| 1787493596 | 21.67° C | 74% | 1020.6 hPa | 0 mm | - | 55 W/m² | - |
| 1787493291 | 21.67° C | 72% | 1020.3 hPa | 0 mm | - | 46 W/m² | - |
| 1787492988 | 21.11° C | 73% | 1020.2 hPa | 0 mm | - | 40 W/m² | - |
| 1787492683 | 20.56° C | 79% | 1020.2 hPa | 0 mm | - | 41 W/m² | - |
| 1787492379 | 20.56° C | 81% | 1020.2 hPa | 0 mm | - | 46 W/m² | - |
| 1787492079 | 20.56° C | 81% | 1020.2 hPa | 0 mm | - | 45 W/m² | - |
| 1787491774 | 20° C | 82% | 1020 hPa | 0 mm | - | 40 W/m² | - |
| 1787491470 | 20° C | 84% | 1020 hPa | 0 mm | - | 40 W/m² | - |
| 1787491165 | 19.44° C | 85% | 1020.2 hPa | 0 mm | - | 41 W/m² | - |
| 1787490861 | 18.89° C | 85% | 1020 hPa | 0 mm | - | 41 W/m² | - |
| 1787490561 | 18.89° C | 87% | 1020 hPa | 0 mm | - | 35 W/m² | - |
| 1787490261 | 18.33° C | 90% | 1020.1 hPa | 0 mm | - | 37 W/m² | - |
| 1787489959 | 17.78° C | 93% | 1020.1 hPa | 0 mm | - | 29 W/m² | - |
| 1787489654 | 17.78° C | 95% | 1020.1 hPa | 0 mm | - | 28 W/m² | - |
* Rain latest hour (hover to see other rain measurements)
** Current wind speed in m/s (hover to see current wind gust speed)